Location: Woodhurst
(52.3667°N, 0.0667°W)
Time: 18:00:33
(UTC+00:00)

Daily predictions for brighter satellites

Satellite Brightness Start Highest point End
(mag) Time Altitude Azimuth Time Altitude Azimuth Time Altitude Azimuth
Cosmos 1076 Rocket 3.6 20:29:31 10° NNW 20:33:52 85° W 20:38:12 10° S
SL-08 R/B 4.4 20:30:07 10° N 20:34:54 52° WNW 20:39:34 10° SW
Cosmos 158 Rocket 4.4 20:34:02 10° S 20:39:02 44° ESE 20:44:08 10° NE
USA 186 4.2 20:37:13 10° SW 20:39:07 17° W 20:41:02 10° NW
USA 245 4.0 20:36:06 10° SSE 20:40:18 61° ENE 20:45:31 10° N
Cosmos 2058 Rocket 3.2 20:39:55 10° S 20:44:20 64° E 20:48:45 10° NNE
Geosat 4.2 20:41:27 10° NNE 20:46:29 82° NW 20:51:29 10° SW
Helios 1A 2.8 20:43:26 10° NNE 20:47:30 80° ESE 20:51:32 10° SSW
Cosmos 1980 Rocket 2.8 20:46:24 10° NNW 20:51:48 46° NE 20:57:10 10° ESE
PSLV R/B 3.9 20:49:48 10° SE 20:52:52 43° ENE 20:55:59 10° N
Helios 1B rocket 4.2 20:51:42 10° SSW 20:54:49 26° W 20:57:57 10° NW
Resurs 01 Rocket 4.5 20:53:08 10° WSW 20:55:02 13° W 20:56:57 10° WNW
ATLAS CENTAUR R/B 1.3 20:51:33 10° SSW 20:55:06 47° SE 20:58:49 10° NE
Terra 2.1 20:51:30 10° S 20:56:10 70° WSW 21:00:53 10° NNW
NOSS 7 (H) 4.0 20:53:43 10° NW 20:56:38 86° NE 20:59:36 11° SE
USA 234 3.5 20:51:15 10° ENE 20:57:34 49° SE 21:03:51 10° SSW
Cosmos 1315 Rocket 4.3 20:55:13 10° SE 20:58:04 20° E 21:00:56 10° NE
SAR-Lupe-2 3.7 20:58:22 10° S 21:01:56 75° WSW 21:05:31 10° NNW
SL-16 R/B 4.1 20:57:57 10° NNW 21:02:21 22° NNE 21:06:43 10° E
Meteor 2-2 Rocket 4.4 21:00:00 10° S 21:05:50 64° E 21:11:47 10° NNE
BlueWalker 3 2.1 21:03:31 10° WNW 21:07:04 50° SSW 21:10:12 13° SE
Cosmos 1125 Rocket 3.7 21:03:26 10° NNW 21:08:45 77° WSW 21:14:01 10° SSE
Cosmos 1346 Rocket 2.9 21:06:52 10° NNW 21:10:33 65° W 21:14:12 10° S
Cosmos 2322 Rocket 4.4 21:07:04 10° NNW 21:11:01 19° NNE 21:14:58 10° ENE
Cosmos 1400 Rocket 3.4 21:08:09 10° SSW 21:11:46 53° WNW 21:15:23 10° N
Cosmos 2366 rocket 4.1 21:08:39 10° N 21:15:02 71° ENE 21:21:09 11° SSE
IRS-1C Rocket 4.3 21:15:45 10° S 21:21:01 74° WSW 21:26:19 10° NNW
Cosmos 44 3.5 21:16:44 10° NW 21:21:11 57° SW 21:25:13 14° SSE
Ariane Rocket 3.0 21:16:59 11° SSE 21:21:53 88° ENE 21:27:00 10° NNW
CZ-4C R/B 4.2 21:17:09 10° WNW 21:23:25 32° WSW 21:30:43 10° S
Cosmos 2298 Rocket 4.2 21:18:05 10° NNW 21:23:26 69° ENE 21:27:58 14° SE
SL-8 Rocket 4.0 21:17:27 10° N 21:23:40 86° E 21:29:41 11° S
Cosmos 1697 Rocket 3.0 21:18:30 10° NW 21:24:07 64° WSW 21:29:17 12° SSE
Lacrosse 5 rocket 2.1 21:21:04 10° WNW 21:24:14 31° SW 21:26:34 15° SSE
Cosmos 1238 Rocket 3.3 21:22:13 15° SSE 21:24:43 32° E 21:27:42 10° NNE
Cosmos 1570 Rocket 4.1 21:22:00 10° S 21:27:09 62° ESE 21:32:23 10° NNE
CENTAUR R/B 4.2 21:22:58 10° NW 21:29:55 42° NNE 21:38:12 10° E
Cosmos 2360 Rocket 4.3 21:26:44 10° NNW 21:30:53 20° NNE 21:34:59 10° ENE
ATLAS 3B R/B 4.4 21:30:06 12° SE 21:33:18 16° ESE 21:37:40 10° ENE
Cosmos-2242 3.4 21:29:27 10° SSW 21:33:41 64° WNW 21:37:57 10° N
Cosmos 1536 3.3 21:31:21 10° N 21:35:01 43° ENE 21:37:32 18° SE
Cosmos 2344 4.2 21:27:57 10° WSW 21:35:11 58° NNW 21:42:42 10° NE
Cosmos 2369 4.0 21:31:11 10° NNW 21:36:49 60° NE 21:41:29 15° SE
Cosmos 1867 4.0 21:31:44 10° NW 21:37:04 54° SW 21:41:23 15° SSE
Cosmos 405 Rocket 4.3 21:37:04 10° NNE 21:39:40 20° ENE 21:41:39 13° ESE
Cosmos 2150 Rocket 4.1 21:34:19 10° NNW 21:39:44 90° ENE 21:44:04 16° SSE
Cosmos 2221 2.8 21:37:30 16° SSE 21:40:36 48° E 21:44:38 10° NNE
SeaSat 1 2.5 21:36:40 16° SE 21:40:38 82° ENE 21:45:34 10° NNW
Okean O Rocket 4.0 21:38:08 10° SW 21:41:09 18° W 21:44:10 10° NW
Okean 1 3.4 21:42:38 18° SSE 21:45:06 50° E 21:48:41 10° NNE
Cosmos 2341 Rocket 4.3 21:39:03 10° NNW 21:45:16 69° W 21:51:18 11° S
Cosmos 2082 Rocket 3.0 21:42:05 15° SSE 21:45:51 32° ESE 21:50:47 10° NE
SPOT 3 Rocket 4.0 21:43:33 11° S 21:48:22 55° W 21:53:27 10° NNW
Cosmos 1674 3.0 21:48:35 19° E 21:48:35 19° E 21:50:13 10° NE
Cosmos 192 4.5 21:47:23 10° NNW 21:52:19 72° WSW 21:55:58 18° SSE
ISS -3.2 21:51:34 10° W 21:54:44 40° SSW 21:56:12 25° SSE
Cosmos 773 Rocket 4.0 21:51:31 10° S 21:56:28 61° ESE 22:01:32 10° NNE
Cosmos 1766 Rocket 3.8 21:55:07 10° N 21:59:28 58° ENE 22:02:12 22° SSE
Cosmos 2084 Rocket 3.3 21:55:37 10° SSW 21:59:51 65° SE 22:04:03 10° NE
Cosmos 220 Rocket 4.0 21:57:20 18° S 22:00:09 51° ESE 22:04:06 10° NE
COSMOS 2406 4.2 21:59:10 19° SSE 22:02:02 28° ESE 22:06:50 10° NE
ARIANE 6 FM1 Upper Stage 3.4 21:58:13 10° WSW 22:02:11 55° NW 22:06:11 10° NE
Cosmos 1356 Rocket 3.9 22:04:24 10° SSW 22:08:28 58° WNW 22:12:31 10° N
USA 59 Rocket 1.2 22:10:24 15° E 22:10:24 15° E 22:11:28 10° E
Cosmos 2333 Rocket 3.5 22:05:13 10° NNW 22:10:26 34° NE 22:15:34 10° ESE
NOSS 3-1 (C) 3.1 22:08:37 10° SW 22:13:32 85° NW 22:19:40 10° NE
Cosmos 1833 Rocket 3.5 22:08:16 10° SW 22:13:48 55° NW 22:19:22 10° NNE
MetOp-A 4.5 22:10:43 20° SE 22:14:08 53° ENE 22:19:09 10° N
Meteor 2-9 Rocket 4.2 22:14:35 10° NNW 22:20:14 86° ENE 22:24:06 22° SSE
Cosmos 1821 Rocket 4.2 22:14:21 10° NNW 22:20:26 68° W 22:25:07 17° S
PKM 3.4 22:18:49 10° SW 22:21:34 64° SSE 22:25:40 10° ENE
ALOS 2 3.9 22:19:44 16° ESE 22:22:28 30° ENE 22:26:18 10° N
Cosmos 1805 3.4 22:19:14 10° NNW 22:22:38 55° W 22:24:24 25° SSW
Cosmos 2219 Rocket 4.0 22:21:26 10° NNW 22:26:05 25° NE 22:30:40 10° E
Meteor 1-19 Rocket 4.5 22:25:46 21° S 22:29:56 66° E 22:35:54 10° NNE
ATLAS CENTAUR R/B 3.1 22:27:59 10° W 22:31:24 32° NNW 22:34:54 10° NNE
Cosmos 1315 Rocket 3.7 22:30:06 11° SW 22:33:35 44° WNW 22:37:20 10° N
Meteor 1-27 Rocket 4.0 22:30:55 23° SSE 22:34:10 52° E 22:39:32 10° NNE
Cosmos 1980 Rocket 3.0 22:30:33 10° NW 22:35:45 40° WSW 22:39:12 19° SSW
NOSS 2-1 (D) 3.8 22:36:14 28° ESE 22:36:14 28° ESE 22:38:36 10° ENE
Sich 1 3.8 22:32:18 10° N 22:36:19 39° ENE 22:38:23 23° SE
Helios 1B 4.5 22:33:29 10° NNE 22:37:48 77° ESE 22:40:12 26° S
Genesis I 2.6 22:36:54 10° NW 22:39:39 60° NE 22:40:24 40° ESE
USA 234 3.4 22:34:20 10° ENE 22:40:54 80° NNW 22:47:27 10° WSW
DELTA 2 DEB (DPAF) 4.3 22:37:53 10° N 22:41:47 58° WNW 22:44:39 17° SW
NOSS 3-1 (A) 3.0 22:38:15 10° SW 22:43:09 78° SE 22:49:11 10° NE
Meteor 2-15 4.5 22:37:20 10° N 22:43:28 74° ENE 22:47:14 24° SSE
BlueWalker 3 3.9 22:42:18 10° WSW 22:44:08 13° SW 22:44:08 13° SW
SL-16 R/B 2.3 22:41:42 10° NNW 22:47:25 74° ENE 22:51:04 23° SE
Cosmos 1975 2.5 22:45:08 10° N 22:48:50 79° ENE 22:50:13 36° SSE
Meteor 1-11 Rocket 3.9 22:44:34 10° NNW 22:50:01 63° W 22:53:25 23° S
Cosmos 783 Rocket 4.4 22:47:02 18° SSW 22:50:56 89° ESE 22:56:12 10° NNE
Cosmos 1500 Rocket 4.1 22:47:14 10° N 22:51:28 47° ENE 22:53:33 26° SE
Cosmos 1707 3.5 22:51:13 26° ESE 22:51:48 28° E 22:54:43 10° NNE
CZ-4C R/B 3.1 22:48:38 10° NNE 22:52:19 75° WNW 22:54:01 29° SSW
NOSS 2-1 (C) 3.1 22:55:39 43° SE 22:55:47 43° SE 22:58:40 10° ENE
Cosmos 2322 Rocket 2.7 22:50:43 10° NNW 22:56:20 57° NE 23:00:24 18° SE
Cosmos 2237 4.2 22:51:14 10° NW 22:56:55 72° WSW 23:00:06 27° SSE
Spot 4 3.8 22:56:44 29° SSE 22:59:11 79° ENE 23:03:59 10° NNW
Cosmos 1408 Rocket 3.6 22:56:05 10° N 23:00:27 67° ENE 23:02:20 32° SSE
ARIANE 5 R/B 2.6 23:01:14 31° S 23:03:14 70° WSW 23:07:36 10° NNW
Cosmos 1766 2.9 23:00:49 10° NNW 23:04:16 72° W 23:05:17 42° S
Cosmos 1842 Rocket 3.5 23:02:48 29° SSW 23:04:56 84° WNW 23:09:16 10° N
Cosmos 1908 2.7 23:02:23 10° N 23:05:39 75° ENE 23:06:26 48° SSE
Cosmos 1470 2.8 23:02:40 10° N 23:06:12 55° ENE 23:07:19 37° SE
Cosmos 1805 Rocket 3.8 23:03:11 10° N 23:07:37 63° ENE 23:09:35 31° SSE
Nadezhda 3 Rocket 4.3 23:06:38 17° SSW 23:11:27 62° WNW 23:17:40 10° N
Cosmos 2278 3.7 23:07:55 10° NNW 23:13:36 77° WSW 23:16:39 28° SSE
Cosmos 405 Rocket 3.5 23:10:47 10° NNW 23:13:57 35° W 23:14:58 28° SW
GP-B 4.1 23:10:40 10° NNE 23:14:43 35° E 23:16:31 24° SE
Exosat Rocket 3.5 23:10:29 10° NNW 23:15:38 85° ENE 23:18:24 28° SSE
Cosmos 2360 Rocket 2.4 23:10:21 10° NNW 23:15:58 65° NE 23:19:47 21° SE
Cosmos 1934 Rocket 4.2 23:10:03 10° NNW 23:16:13 65° W 23:20:02 25° S
SeaSat 1 4.2 23:16:18 15° SW 23:18:34 19° WSW 23:22:06 10° WNW
Cosmos 1674 4.2 23:18:16 11° W 23:18:57 12° WNW 23:19:58 10° NW
CZ-2C R/B 3.7 23:15:01 10° NNE 23:19:24 73° WNW 23:21:45 27° SSW
Cosmos 1535 Rocket 4.5 23:13:15 10° N 23:19:39 87° W 23:23:17 27° S
Meteor 2-8 Rocket 4.5 23:15:03 10° N 23:21:16 80° ENE 23:24:49 27° SSE
Cosmos 381 Rocket 4.5 23:17:17 22° SSW 23:21:30 83° ESE 23:27:56 10° NNE
CENTAUR R/B 3.3 23:13:47 10° NW 23:21:43 79° NE 23:31:01 10° SE
ATLAS 3B R/B 3.0 23:17:16 20° SSW 23:22:33 61° SE 23:30:16 10° NE
KORONAS-FOTON 3.4 23:22:30 46° S 23:23:26 85° E 23:26:56 10° NNE
USA 229 DEB 4.0 23:20:46 27° S 23:23:30 43° ESE 23:29:46 10° NE
USA 229 4.0 23:20:54 27° S 23:23:36 42° ESE 23:29:50 10° NE
ASTEX 1 4.3 23:19:14 10° NNE 23:23:51 38° E 23:26:06 25° SE
Spot 1 4.4 23:19:43 10° NNE 23:23:55 54° ESE 23:25:34 34° SSE
Cosmos 1743 Rocket 3.6 23:21:25 10° N 23:25:53 72° ENE 23:27:46 34° SSE
Cosmos 2082 Rocket 2.8 23:24:11 10° SW 23:29:41 55° NW 23:35:14 10° NNE
Cosmos 1605 Rocket 4.0 23:25:22 10° NNW 23:31:44 81° W 23:35:18 28° S
Landsat 5 3.7 23:29:57 10° N 23:34:05 68° WNW 23:36:07 29° SSW
Cosmos 1842 2.8 23:36:29 48° SSW 23:37:21 85° WNW 23:40:51 10° N
Cosmos 1420 Rocket 4.0 23:35:12 10° NNW 23:40:33 83° ENE 23:43:26 28° SSE
USA-17 4.2 23:40:08 10° NW 23:43:14 79° NE 23:44:06 44° ESE
COSMOS 2406 3.6 23:41:09 15° SW 23:45:56 63° NW 23:51:38 10° NNE
Cosmos 1455 3.4 23:44:06 10° NNE 23:46:19 20° ENE 23:47:02 19° E
Cosmos 1300 2.2 23:46:44 10° N 23:49:55 73° E 23:50:26 56° SE
